Greenville Downtown, SC

5:45 PM EDT on June 22, 2017 (GMT -0400)
Greenville Downtown

Weather History for KGMU - February, 2012

Change the Weather History Date:

Tuesday, February 7, 2012

  Actual Average Record
Temperature  
Mean Temperature 45 °F -  
Max Temperature 57 °F 52 °F 70 °F (2017)
Min Temperature 33 °F 35 °F 28 °F (2004)
Degree Days  
Heating Degree Days 20    
Moisture  
Dew Point 35 °F    
Average Humidity 67    
Maximum Humidity 93    
Minimum Humidity 40    
Precipitation  
Precipitation 0.00 in - - ()
Sea Level Pressure  
Sea Level Pressure 30.16 in    
Wind  
Wind Speed 3 mph (SW)    
Max Wind Speed 8 mph    
Max Gust Speed -    
Visibility 9 miles    
Events      
Averages and records for this station are not official NWS values.
T = Trace of Precipitation, MM = Missing Value Source: NWS Daily Summary

Daily Weather History Graph

Daily Weather History Graph

Search for Another Location

Airport or City:

Trip Planner

Search our weather history database for the weather conditions in past years. The results will help you decide how hot, cold, wet, or windy it might be!

Date:

Astronomy

Feb. 07, 2012 Rise Set
Actual Time 7:23 AM EST 6:04 PM EST
Civil Twilight 6:57 AM EST 6:30 PM EST
Nautical Twilight 6:27 AM EST 7:00 PM EST
Astronomical Twilight 5:57 AM EST 7:29 PM EST
Moon 6:11 PM EST (2/7) 6:52 AM EST (2/7)
Length of Visible Light 11h 33m
Length of Day
10h 40m
Full, 100% of the Moon is Illuminated
Feb 7
Full
Feb 7
Full
Feb 14
Last Quarter
Feb 21
New
Feb 29
First Quarter

Hourly Weather History & Observations

Time (EST) Temp. Windchill Dew Point Humidity Pressure Visibility Wind Dir Wind Speed Gust Speed Precip Events Conditions
12:53 AM 37.9 °F 34.4 °F 35.1 °F 89% 30.18 in 10.0 mi West 4.6 mph - N/A   Clear
1:53 AM 39.9 °F 35.8 °F 37.0 °F 89% 30.17 in 10.0 mi WNW 5.8 mph - N/A   Clear
2:53 AM 39.0 °F 36.8 °F 36.0 °F 89% 30.16 in 10.0 mi WNW 3.5 mph - N/A   Clear
3:53 AM 37.0 °F - 35.1 °F 93% 30.16 in 9.0 mi Calm Calm - N/A   Clear
4:53 AM 36.0 °F - 34.0 °F 93% 30.16 in 6.0 mi Calm Calm - N/A   Clear
5:53 AM 35.1 °F - 32.0 °F 89% 30.17 in 7.0 mi Calm Calm - N/A   Clear
6:53 AM 36.0 °F - 34.0 °F 93% 30.18 in 7.0 mi Calm Calm - N/A   Clear
7:53 AM 33.1 °F - 30.9 °F 92% 30.20 in 5.0 mi Calm Calm - N/A   Clear
8:53 AM 39.0 °F - 36.0 °F 89% 30.22 in 6.0 mi Calm Calm - N/A   Clear
9:53 AM 45.0 °F - 37.0 °F 74% 30.21 in 10.0 mi Calm Calm - N/A   Clear
10:53 AM 51.1 °F - 32.0 °F 48% 30.20 in 10.0 mi Calm Calm - N/A   Clear
11:53 AM 54.0 °F - 30.0 °F 40% 30.18 in 10.0 mi SSW 4.6 mph - N/A   Clear
12:53 PM 55.9 °F - 34.0 °F 44% 30.15 in 10.0 mi Variable 4.6 mph - N/A   Clear
1:53 PM 57.0 °F - 34.0 °F 42% 30.13 in 10.0 mi WSW 8.1 mph - N/A   Clear
2:53 PM 55.9 °F - 34.0 °F 44% 30.12 in 10.0 mi SW 5.8 mph - N/A   Clear
3:53 PM 55.9 °F - 34.0 °F 44% 30.12 in 10.0 mi SSW 5.8 mph - N/A   Clear
4:53 PM 57.0 °F - 34.0 °F 42% 30.12 in 10.0 mi SSW 5.8 mph - N/A   Clear
5:53 PM 54.0 °F - 35.1 °F 49% 30.13 in 10.0 mi SW 5.8 mph - N/A   Clear
6:53 PM 52.0 °F - 36.0 °F 54% 30.14 in 10.0 mi SW 3.5 mph - N/A   Clear
7:08 PM 51.8 °F - 35.6 °F 54% 30.13 in 10.0 mi SW 3.5 mph - N/A   Clear
7:53 PM 48.9 °F - 36.0 °F 61% 30.15 in 10.0 mi Calm Calm - N/A   Clear
8:53 PM 48.0 °F - 36.0 °F 63% 30.16 in 10.0 mi Calm Calm - N/A   Clear
9:53 PM 44.1 °F 42.5 °F 36.0 °F 73% 30.17 in 10.0 mi South 3.5 mph - N/A   Clear
10:53 PM 44.1 °F - 36.0 °F 73% 30.15 in 10.0 mi Calm Calm - N/A   Clear
11:53 PM 41.0 °F - 35.1 °F 79% 30.18 in 10.0 mi Calm Calm - N/A   Clear